"TOA5","AWS1","CR1000","7964","CR1000.Std.14","CPU:AWS1_114.CR1","64363","TBL110"
"TIMESTAMP","RECORD","Wind_spd_WVc(1)","Wind_spd_WVc(2)","Air_Temp_Avg","Humidity_Avg","SW_upper_Wm2_Avg","Rain_Tot","Press_Avg","Issui_Tot","Depth_cm","SR50A_Raw","Quality","Ground_Temp_Avg(1)","Ground_Temp_Avg(2)","SW_lower_Wm2_Avg","Albedo_Avg","SWC_per(1)","SWC_per(2)","Period(1)","Period(2)"
"TS","RN","","","","","","","","","","","","","","","","","","",""
"","","WVc","WVc","Avg","Avg","Avg","Tot","Avg","Tot","Smp","Smp","Smp","Avg","Avg","Avg","Avg","Smp","Smp","Smp","Smp"
"2016-05-29 00:00:00",237517,0.49,175.6,8.78,100,0,0,862.1157,0,-33.1,3.458,219,15.44,15.24,0.1970668,0,46.24,53.11,32.35,34.06
"2016-05-29 00:10:00",237518,0.268,173,8.26,100,0,0,862.0567,0,0.289,3.13,265,15.4,15.16,0.155401,0,46.24,53.11,32.35,34.06
"2016-05-29 00:20:00",237519,0.636,54.05,9.65,98.1,0,0,861.9893,0,-1.22,3.132,260,15.4,15.14,2.069587,0,46.24,53.05,32.35,34.04
"2016-05-29 00:30:00",237520,0.522,169.4,8.86,91.9,0,0,861.9536,0,-0.895,3.143,236,15.34,15.14,0.3032465,0,46.24,53.11,32.35,34.06
"2016-05-29 00:40:00",237521,0.691,183.6,7.994,99.9,0,0,861.8967,0,3.459,3.101,323,15.34,15.14,0.4435057,0,46.24,53.11,32.35,34.06
"2016-05-29 00:50:00",237522,0.625,183.1,7.872,100,0,0,861.8356,0,-0.5,3.14,257,15.32,15.16,0.6899174,0,46.19,53.11,32.34,34.06
"2016-05-29 01:00:00",237523,0.516,186.1,8.06,97.7,0,0,861.8437,0,0.135,3.133,244,15.28,15.2,1.156196,0,46.24,53.11,32.35,34.06
"2016-05-29 01:10:00",237524,0.679,184.9,7.99,91.3,0,0,861.6848,0,0.358,3.132,240,15.19,15.23,1.061432,0,46.24,53.05,32.35,34.04
"2016-05-29 01:20:00",237525,0.403,192.7,8.07,83.1,0,0,861.609,0,-0.474,3.139,242,15.19,15.23,1.520125,0,46.19,53.05,32.34,34.04
"2016-05-29 01:30:00",237526,0.522,185.4,7.955,81.6,0,0,861.6283,0,-0.954,3.143,232,15.11,15.18,1.618687,0,46.19,53.05,32.34,34.04
"2016-05-29 01:40:00",237527,0.549,186.4,8.05,78.99,0,0,861.6821,0,-1.722,3.153,222,15.12,15.15,1.796856,0,46.24,53.11,32.35,34.06
"2016-05-29 01:50:00",237528,0.681,189,7.731,79.69,0,0,861.6566,0,-1.467,3.15,218,15.01,15.15,1.607315,0,46.24,53.11,32.35,34.06
"2016-05-29 02:00:00",237529,0.704,182.1,7.606,81.1,0,0,861.4069,0,-1.498,3.152,228,15.03,15.14,1.535289,0,46.24,53.11,32.35,34.06
"2016-05-29 02:10:00",237530,0.77,183.7,7.56,81.8,0,0,861.1721,0,0.407,3.132,267,14.96,15.12,1.417773,0,46.24,53.05,32.35,34.04
"2016-05-29 02:20:00",237531,0.673,192.5,7.825,75.6,0,0,861.1594,0,-33.48,3.463,261,14.95,15.14,1.671759,0,46.24,53.11,32.35,34.06
"2016-05-29 02:30:00",237532,0.593,196.1,8.16,68.17,0,0,861.1898,0,6.364,3.069,348,14.86,15.15,1.85751,0,46.24,53.11,32.35,34.06
"2016-05-29 02:40:00",237533,0.506,195.6,8.23,67.53,0,0,861.3818,0,2.184,3.114,265,14.85,15.15,1.334374,0,46.29,53.11,32.36,34.06
"2016-05-29 02:50:00",237534,0.746,192.8,7.64,68.51,0,0,861.4156,0,0.051,3.136,237,14.82,15.11,0.3639203,0,46.24,53.11,32.35,34.06
"2016-05-29 03:00:00",237535,0.784,186.8,7.708,68.68,0,0,861.4219,0,0.817,3.127,242,14.77,15.07,0.371502,0,46.24,53.11,32.35,34.06
"2016-05-29 03:10:00",237536,0.717,186.8,8.05,66.69,0,0,861.4304,0,0.82,3.126,251,14.7,15.06,0.4321553,0,46.24,53.05,32.35,34.04
"2016-05-29 03:20:00",237537,0.664,182.9,8.19,65.22,0,0,861.4367,0,1.231,3.121,256,14.66,15.06,0.3184303,0,46.24,53.11,32.35,34.06
"2016-05-29 03:30:00",237538,0.579,183.5,8.22,60.93,0,0,861.6727,0,0.166,3.131,240,14.64,15,0.1554243,0,46.29,53.05,32.36,34.04
"2016-05-29 03:40:00",237539,0.459,183.3,8.26,58.34,0,0,861.7991,0,0.268,3.13,269,14.59,15.04,0.163006,0,46.29,53.11,32.36,34.06
"2016-05-29 03:50:00",237540,0.673,186.5,8.31,56.95,0,0,861.8223,0,3.463,3.099,271,14.57,15.06,0.1705876,0,46.24,53.11,32.35,34.06
"2016-05-29 04:00:00",237541,0.498,188.5,8.09,58.91,0,0,861.9423,0,6.652,3.069,354,14.51,15.06,0,0,46.24,53.11,32.35,34.06
"2016-05-29 04:10:00",237542,0.59,186.7,7.963,60.23,0,0,862.1446,0,7.058,3.065,327,14.48,15.06,0,0,46.29,53.11,32.36,34.06
"2016-05-29 04:20:00",237543,0.469,187.3,7.893,61.51,0,0,862.0834,0,7.26,3.063,431,14.42,15.06,0.01895418,0,46.24,53.11,32.35,34.06
"2016-05-29 04:30:00",237544,0.111,161.6,8.37,57.22,0,0,862.2689,0,7.176,3.061,282,14.4,15.03,0.6558147,0,46.24,53.11,32.35,34.06
"2016-05-29 04:40:00",237545,0.222,92.1,10.12,44.63,3.035216,0,862.4374,0,6.982,3.054,272,14.3,14.99,3.275283,1.008,46.29,53.11,32.36,34.06
"2016-05-29 04:50:00",237546,0.343,119.2,9.94,45.52,5.527867,0,862.4628,0,8.92,3.035,280,14.33,14.96,2.44509,0.473,46.29,53.11,32.36,34.06
"2016-05-29 05:00:00",237547,0.106,131.9,10.64,39.69,13.30463,0,862.4501,0,17.02,2.946,373,14.25,14.93,3.809791,0.279,46.24,53.11,32.35,34.06
"2016-05-29 05:10:00",237548,0.626,180.5,12.78,31.88,22.52429,0,862.408,0,5.879,3.052,253,14.2,14.9,6.387559,0.296,46.24,53.11,32.35,34.06
"2016-05-29 05:20:00",237549,1.053,179.5,12.2,35.24,30.45831,0,862.2501,0,6.509,3.047,236,14.26,14.89,5.288217,0.173,46.29,53.11,32.36,34.06
"2016-05-29 05:30:00",237550,1.08,190.6,12.94,31.6,26.8884,0,862.0349,0,-31.09,3.407,223,14.19,14.89,4.791617,0.178,46.24,53.11,32.35,34.06
"2016-05-29 05:40:00",237551,0.672,187.5,13.92,26.57,31.46481,0,861.8658,0,7.949,3.021,238,14.11,14.89,6.402723,0.201,46.35,53.11,32.38,34.06
"2016-05-29 05:50:00",237552,0.508,358.3,14.69,23.86,99.72658,0,861.7852,0,11.26,2.987,325,14.1,14.91,20.4509,0.206,46.29,53.11,32.36,34.06
"2016-05-29 06:00:00",237553,0.504,343.9,14.77,26.3,74.30872,0,861.8273,0,5.609,3.051,252,14.07,14.9,20.7062,0.292,46.35,53.11,32.38,34.06
"2016-05-29 06:10:00",237554,0.171,127.4,11.53,46.62,67.77982,0,861.6234,0,-31.33,3.428,198,14.04,14.86,24.30065,0.413,46.35,53.16,32.38,34.07
"2016-05-29 06:20:00",237555,0.405,165.7,10.46,50.68,55.84713,0,861.2502,0,-28.18,3.398,177,13.92,14.82,31.28744,0.579,46.35,53.11,32.38,34.06
"2016-05-29 06:30:00",237556,0.361,147.5,10.66,51.78,118.6328,0,861.0901,0,9.17,3.027,282,13.9,14.79,35.52732,0.377,46.35,53.11,32.38,34.06
"2016-05-29 06:40:00",237557,0.104,57.93,12.41,35.31,118.1015,0,861.248,0,13.89,2.969,385,13.9,14.8,34.93212,0.355,46.35,53.11,32.38,34.06
"2016-05-29 06:50:00",237558,0.096,46.94,13.7,30.81,127.9388,0,861.3428,0,8.43,3.022,309,13.77,14.8,36.98219,0.32,46.35,53.16,32.38,34.07
"2016-05-29 07:00:00",237559,0.14,22.01,13.32,37.04,73.16228,0,861.3408,0,-27.59,3.377,193,13.83,14.8,37.51649,0.542,46.29,53.11,32.36,34.06
"2016-05-29 07:10:00",237560,0.004,128.4,13.19,37.27,61.76839,0,861.1933,0,-34.93,3.444,219,13.84,14.79,36.63353,0.597,46.29,53.11,32.36,34.06
"2016-05-29 07:20:00",237561,0.064,134.3,14.07,37.96,73.37845,0,861.0185,0,-31.2,3.402,213,13.84,14.76,37.5127,0.513,46.29,53.16,32.36,34.07
"2016-05-29 07:30:00",237562,0.128,180.7,15.09,30.61,79.60403,0,860.9426,0,7.597,3.019,406,13.79,14.71,40.24496,0.511,46.29,53.16,32.36,34.07
"2016-05-29 07:40:00",237563,0.348,5.962,15.55,28.33,338.8733,0,860.8521,0,7.783,3.019,236,13.75,14.65,47.75584,0.277,46.29,53.11,32.36,34.06
"2016-05-29 07:50:00",237564,0.499,358.4,14.6,39.7,634.7728,0,861.0758,0,8.79,3.016,273,13.7,14.66,63.29676,0.099,46.29,53.16,32.36,34.07
"2016-05-29 08:00:00",237565,0.353,342,14.36,47.85,682.3914,0,861.0695,0,-32.2,3.41,260,13.73,14.66,87.37819,0.128,46.35,53.11,32.38,34.06
"2016-05-29 08:10:00",237566,0.344,3.586,15.03,45.89,718.9241,0,861.2537,0,8.11,3.014,239,13.7,14.64,105.7925,0.147,46.35,53.11,32.38,34.06
"2016-05-29 08:20:00",237567,0.273,350.2,15.71,46.93,681.8844,0,861.2584,0,8.17,3.015,241,13.65,14.6,103.7552,0.151,46.35,53.11,32.38,34.06
"2016-05-29 08:30:00",237568,0.232,337.5,15.57,47.17,703.6828,0,861.2528,0,7.228,3.021,288,13.63,14.55,107.7302,0.152,46.35,53.11,32.38,34.06
"2016-05-29 08:40:00",237569,0.538,9.1,16.1,41.96,834.9101,0,861.3336,0,7.595,3.017,376,13.62,14.51,130.9461,0.157,46.29,53.11,32.36,34.06
"2016-05-29 08:50:00",237570,0.463,358.5,16.14,43.22,867.7098,0,861.2995,0,7.553,3.017,280,13.62,14.49,135.2662,0.156,46.35,53.11,32.38,34.06
"2016-05-29 09:00:00",237571,0.626,28.08,16.13,43.05,904.3062,0,861.2481,0,14.47,2.95,300,13.61,14.48,141.461,0.156,46.29,53.11,32.36,34.06
"2016-05-29 09:10:00",237572,0.736,9.01,16.51,42.89,938.5444,0,861.2898,0,0.671,3.08,267,13.59,14.44,147.2378,0.157,46.35,53.16,32.38,34.07
"2016-05-29 09:20:00",237573,0.591,28.62,17.29,43.66,826.1082,0,861.3343,0,9.54,2.991,266,13.6,14.34,129.2585,0.155,46.35,53.11,32.38,34.06
"2016-05-29 09:30:00",237574,0.318,344.6,16.81,46.45,640.2783,0,861.2507,0,-31.24,3.387,206,13.6,14.37,99.81771,0.148,46.35,53.11,32.38,34.06
"2016-05-29 09:40:00",237575,0.755,22.01,17.29,44.26,1004.945,0,861.215,0,9.59,2.989,288,13.56,14.36,161.1522,0.16,46.35,53.11,32.38,34.06
"2016-05-29 09:50:00",237576,0.649,1.981,17.98,43.58,1052.29,0,861.2509,0,-27.79,3.348,211,13.53,14.34,166.5735,0.158,46.35,53.11,32.38,34.06
"2016-05-29 10:00:00",237577,0.519,327.9,18.22,42.76,887.5027,0,861.2424,0,6.339,3.016,304,13.51,14.36,139.3008,0.155,46.29,53.11,32.36,34.06
"2016-05-29 10:10:00",237578,0.269,52.58,18.54,45.5,852.8724,0,861.0572,0,5.978,3.017,253,13.52,14.31,134.6145,0.157,46.35,53.11,32.38,34.06
"2016-05-29 10:20:00",237579,0.302,144.5,19.36,47.07,1054.072,0,860.9158,0,12.92,2.947,347,13.59,14.25,169.0081,0.16,46.29,53.11,32.36,34.06
"2016-05-29 10:30:00",237580,0.421,106.1,19.45,45.79,992.6306,0,860.7952,0,3.747,3.037,297,13.65,14.19,158.9724,0.16,46.29,53.05,32.36,34.04
"2016-05-29 10:40:00",237581,0.362,161,19.63,47.24,1045.962,0,860.6232,0,7.231,2.998,264,13.69,14.21,172.2916,0.165,46.35,53.05,32.38,34.04
"2016-05-29 10:50:00",237582,0.407,61.66,20.15,46.6,961.2891,0,860.4814,0,-28.61,3.348,216,13.76,14.21,153.2295,0.156,46.24,53.05,32.35,34.04
"2016-05-29 11:00:00",237583,0.614,16.13,19.54,47.33,1071.178,0,860.2606,0,9.34,2.981,348,13.84,14.23,172.7112,0.161,46.29,53.05,32.36,34.04
"2016-05-29 11:10:00",237584,0.727,17.05,19.54,45.83,1105.268,0,860.2352,0,318,0,0,13.91,14.16,177.7196,0.161,46.24,53.05,32.35,34.04
"2016-05-29 11:20:00",237585,0.621,2.995,20.11,46.31,1142.39,0,860.1783,0,318,0,0,14.04,14.11,184.0713,0.161,46.24,53.05,32.35,34.04
"2016-05-29 11:30:00",237586,0.55,321.8,20.31,45.76,1051.133,0,859.967,0,-33.59,3.392,244,14.15,14.12,170.1781,0.161,46.24,53.11,32.35,34.06
"2016-05-29 11:40:00",237587,0.576,295.6,19.82,45.74,849.5688,0,859.817,0,-25.23,3.317,276,14.26,14.14,134.922,0.158,46.19,53.05,32.34,34.04
"2016-05-29 11:50:00",237588,0.517,279.7,19.91,45.6,1104.572,0,859.7275,0,17.92,2.895,339,14.43,14.14,184.1429,0.167,46.19,53.05,32.34,34.04
"2016-05-29 12:00:00",237589,0.521,256.9,20.74,44.29,1093.36,0,859.7276,0,318,0,0,14.55,14.14,181.5995,0.166,46.19,53.11,32.34,34.06
"2016-05-29 12:10:00",237590,0.428,299.8,21,44.94,936.351,0,859.7316,0,-30.72,3.361,262,14.68,14.13,149.1202,0.158,46.19,53.05,32.34,34.04
"2016-05-29 12:20:00",237591,0.419,209.8,21.59,46.13,1069.289,0,859.6357,0,318,0,0,14.84,14.12,178.7181,0.167,46.19,53.05,32.34,34.04
"2016-05-29 12:30:00",237592,0.341,35.28,22.03,44.86,1058.189,0,859.7205,0,6.372,2.996,273,14.96,14.1,173.126,0.163,46.19,53,32.34,34.03
"2016-05-29 12:40:00",237593,0.449,147.8,21.91,47.02,877.6108,0,859.8541,0,7.529,2.988,312,15.11,14.09,138.1264,0.157,46.14,53,32.32,34.03
"2016-05-29 12:50:00",237594,0.421,319,21.58,49.62,971.9682,0,859.9852,0,318,0,0,15.22,14.09,157.9204,0.16,46.08,53.05,32.31,34.04
"2016-05-29 13:00:00",237595,0.519,132.3,22.07,47.56,1019.069,0,859.8144,0,8.08,2.98,333,15.38,14.09,164.1301,0.159,46.08,53.05,32.31,34.04
"2016-05-29 13:10:00",237596,0.529,102.4,21.86,48.68,785.7592,0,859.4991,0,8.07,2.981,296,15.51,14.09,123.7423,0.154,46.08,53.05,32.31,34.04
"2016-05-29 13:20:00",237597,0.47,149.6,21.33,50.2,799.21,0,859.511,0,1.449,3.047,338,15.68,14.09,127.7328,0.153,46.03,53.05,32.29,34.04
"2016-05-29 13:30:00",237598,0.607,88.8,21.89,49.76,764.2448,0,859.5499,0,2.629,3.037,421,15.82,14.08,117.953,0.149,46.03,53.05,32.29,34.04
"2016-05-29 13:40:00",237599,0.483,5.231,20.96,53.06,384.4826,0,859.4977,0,-34.03,3.394,243,15.92,14.08,53.02793,0.137,46.03,53.05,32.29,34.04
"2016-05-29 13:50:00",237600,0.228,265.9,20.56,55.94,276.4963,0,859.4789,0,-25.64,3.315,242,16.08,14.12,37.29386,0.133,45.98,53.05,32.28,34.04
"2016-05-29 14:00:00",237601,0.384,233,21.41,52.54,1102.573,0,859.4954,0,-26.97,3.317,280,16.22,14.11,192.3566,0.173,45.98,53.05,32.28,34.04
"2016-05-29 14:10:00",237602,0.649,40.34,22.27,50.06,925.8624,0,859.326,0,-25.51,3.303,208,16.35,14.08,154.287,0.163,45.98,53,32.28,34.03
"2016-05-29 14:20:00",237603,0.292,255.7,22.01,49.71,467.6457,0,859.2296,0,-34.72,3.396,299,16.46,14.09,64.32816,0.131,45.98,53,32.28,34.03
"2016-05-29 14:30:00",237604,0.328,271.9,21.09,53.92,376.9662,0,859.2277,0,12.5,2.946,368,16.55,14.08,51.7664,0.135,45.98,53,32.28,34.03
"2016-05-29 14:40:00",237605,0.262,307.7,20.49,57.87,432.3252,0,859.2089,0,-27.92,3.335,302,16.63,14.08,62.89251,0.144,45.87,53,32.25,34.03
"2016-05-29 14:50:00",237606,0.251,269.8,21.03,56.03,545.5062,0,859.115,0,-26.31,3.316,221,16.73,14.16,79.29183,0.143,45.92,53,32.27,34.03
"2016-05-29 15:00:00",237607,0.578,171.4,20.75,58.5,490.2181,0,859.0644,0,8.78,2.981,311,16.83,14.23,65.13894,0.133,45.92,52.94,32.27,34.02
"2016-05-29 15:10:00",237608,0.592,78.29,20.9,59.12,369.3874,0,859.2053,0,8.58,2.984,318,16.92,14.21,49.47453,0.135,45.87,53,32.25,34.03
"2016-05-29 15:20:00",237609,0.457,342.6,20.17,61.57,403.3492,0,859.1783,0,318,0,0,16.97,14.19,57.65715,0.143,45.87,53,32.25,34.03
"2016-05-29 15:30:00",237610,0.475,25.52,20.1,62.54,322.7744,0,859.0294,0,9.91,2.974,294,17.06,14.16,46.16739,0.143,45.82,53,32.24,34.03
"2016-05-29 15:40:00",237611,0.234,131,19.61,63.97,241.3117,0,858.9832,0,-24.56,3.31,234,17.16,14.17,34.13212,0.141,45.82,52.94,32.24,34.02
"2016-05-29 15:50:00",237612,0.231,269.5,19.1,65.89,162.5246,0,858.9874,0,-25.76,3.325,201,17.19,14.25,21.77864,0.134,45.82,53,32.24,34.03
"2016-05-29 16:00:00",237613,0.339,305.5,18.59,67.33,180.4288,0,859.078,0,-33.84,3.406,256,17.27,14.3,25.78282,0.142,45.77,53,32.23,34.03
"2016-05-29 16:10:00",237614,0.376,343.1,18.49,66.98,201.8298,0,859.2043,0,8.85,2.992,296,17.36,14.32,30.02566,0.148,45.77,53,32.23,34.03
"2016-05-29 16:20:00",237615,0.186,324.3,18.33,66.6,176.0363,0,859.1748,0,-27.85,3.348,194,17.35,14.33,26.40409,0.147,45.77,53,32.23,34.03
"2016-05-29 16:30:00",237616,0.293,23.29,17.98,69.6,77.98166,0,859.1559,0,7.272,3.01,296,17.34,14.45,9.77747,0.12,45.77,52.94,32.23,34.02
"2016-05-29 16:40:00",237617,0.491,51.41,17.55,71.96,70.32021,0,859.2191,0,-31.77,3.393,210,17.46,14.49,9.118315,0.127,45.71,52.94,32.21,34.02
"2016-05-29 16:50:00",237618,0.163,23.94,17.17,73,135.1517,0,859.2296,0,-34.5,3.419,232,17.45,14.43,20.8884,0.154,45.77,52.94,32.23,34.02
"2016-05-29 17:00:00",237619,0.683,137.4,17.2,73.62,139.56,0,859.1622,0,-33.44,3.411,270,17.44,14.45,21.25208,0.152,45.77,52.94,32.23,34.02
"2016-05-29 17:10:00",237620,0.791,121.5,16.76,74.06,140.5461,0,859.0927,0,-32.33,3.401,236,17.45,14.53,22.07791,0.156,45.77,52.94,32.23,34.02
"2016-05-29 17:20:00",237621,0.758,127.2,16.51,74.86,93.02951,0,859.0253,0,-33.23,3.411,249,17.47,14.57,14.23245,0.153,45.71,52.94,32.21,34.02
"2016-05-29 17:30:00",237622,0.453,139,16.27,76.26,53.76018,0,859.1685,0,4.049,3.051,364,17.5,14.55,7.739456,0.143,45.66,52.94,32.2,34.02
"2016-05-29 17:40:00",237623,0.565,124.8,15.96,77.19,30.65788,0,859.2254,0,0.591,3.086,276,17.5,14.58,4.155755,0.135,45.71,52.94,32.21,34.02
"2016-05-29 17:50:00",237624,0.374,132.2,15.8,78.89,34.59102,0,859.2296,0,-0.471,3.097,248,17.52,14.65,5.099072,0.147,45.66,52.94,32.2,34.02
"2016-05-29 18:00:00",237625,0.866,116.9,15.59,80.4,27.09866,0,859.3223,0,0.803,3.086,283,17.49,14.67,3.871696,0.139,45.66,52.94,32.2,34.02
"2016-05-29 18:10:00",237626,0.25,118.5,15.52,81.5,9.602926,0,859.6465,0,0.255,3.091,259,17.47,14.69,1.265356,0.134,45.66,52.94,32.2,34.02
"2016-05-29 18:20:00",237627,0.311,124.9,15.39,82.7,9.00616,0,859.8107,0,1.523,3.08,271,17.54,14.74,1.295728,0.142,45.66,52.94,32.2,34.02
"2016-05-29 18:30:00",237628,0.128,87.3,15.25,84.6,5.245829,0,859.8275,0,8.04,3.017,472,17.56,14.73,0.9812852,0.193,45.66,52.94,32.2,34.02
"2016-05-29 18:40:00",237629,0.235,124,15.02,90.6,1.269228,0,859.7349,0,0.738,3.089,272,17.54,14.77,0.594843,0.763,45.66,52.94,32.2,34.02
"2016-05-29 18:50:00",237630,0.09,151.4,14.79,96.2,0,0,859.7401,0,-31.2,3.402,328,17.49,14.84,0.628948,0,45.66,52.94,32.2,34.02
"2016-05-29 19:00:00",237631,0.105,151,14.6,99.5,0,0,859.7193,0,2.616,3.073,322,17.52,14.84,0.591064,0,45.66,52.94,32.2,34.02
"2016-05-29 19:10:00",237632,0.295,75.69,14.51,100,0,0,859.6917,0,8.5,3.017,374,17.49,14.82,0.5797055,0,45.61,52.94,32.19,34.02
"2016-05-29 19:20:00",237633,0.332,53.74,14.17,100,0,0,859.6117,0,8.48,3.018,389,17.51,14.9,0.2766052,0,45.61,52.94,32.19,34.02
"2016-05-29 19:30:00",237634,0.279,123.2,14.19,100,0,0,859.6425,0,8.42,3.019,411,17.52,14.99,0.4736597,0,45.61,52.94,32.19,34.02
"2016-05-29 19:40:00",237635,0.314,38.54,14.04,100,0,0,859.6671,0,-22.6,3.322,266,17.5,14.97,0.4547322,0,45.61,52.94,32.19,34.02
"2016-05-29 19:50:00",237636,0.231,0.158,13.87,100,0,0,859.785,0,-0.212,3.105,292,17.45,14.99,0.3372657,0,45.61,52.94,32.19,34.02
"2016-05-29 20:00:00",237637,0.261,140.6,13.73,100,0,0,859.7772,0,1.011,3.094,249,17.4,15.04,0.2463194,0,45.61,52.94,32.19,34.02
"2016-05-29 20:10:00",237638,0.268,97.1,13.57,100,0,0,859.7899,0,-26.03,3.359,198,17.42,15.08,0.2235828,0,45.61,52.94,32.19,34.02
"2016-05-29 20:20:00",237639,0.046,94.5,13.43,100,0,0,859.5665,0,0.083,3.104,256,17.36,15.1,0.420639,0,45.61,52.94,32.19,34.02
"2016-05-29 20:30:00",237640,0.25,56.92,13.42,100,0,0,859.6797,0,0.343,3.101,250,17.35,15.1,0.4547449,0,45.61,52.94,32.19,34.02
"2016-05-29 20:40:00",237641,0.133,182.7,13.5,100,0,0,860.0724,0,0.066,3.103,253,17.34,15.13,0.4547449,0,45.61,52.88,32.19,34
"2016-05-29 20:50:00",237642,0.419,111.2,13.26,100,0,0.5,860.1927,0,-0.597,3.113,220,17.24,15.19,0.2349515,0,45.56,52.88,32.17,34
"2016-05-29 21:00:00",237643,0.569,116.6,12.72,100,0,0,859.8453,0,-0.302,3.112,255,17.24,15.23,0.003789541,0,45.56,52.94,32.17,34.02
"2016-05-29 21:10:00",237644,0.593,120.3,12.5,100,0,0,859.8242,0,-0.157,3.112,233,17.26,15.22,0.1136862,0,45.61,52.88,32.19,34
"2016-05-29 21:20:00",237645,0.595,100.2,12.38,100,0,0,859.9021,0,-3.988,3.149,191,17.2,15.2,0.4168495,0,45.56,52.88,32.17,34
"2016-05-29 21:30:00",237646,0.497,82.2,12.25,100,0,0,860.2518,0,-4.25,3.153,196,17.17,15.18,0.3637959,0,45.56,52.94,32.17,34.02
"2016-05-29 21:40:00",237647,0.539,78.93,11.91,100,0,0,859.9021,0,-0.533,3.119,217,17.14,15.16,0.371375,0,45.56,52.88,32.17,34
"2016-05-29 21:50:00",237648,0.503,270.6,11.63,100,0,0.5,859.8221,0,-0.538,3.12,222,17.1,15.15,0.4585344,0,45.56,52.88,32.17,34
"2016-05-29 22:00:00",237649,0.381,53.26,11.51,100,0,0,859.6388,0,0.099,3.114,334,17.1,15.19,0.462324,0,45.56,52.88,32.17,34
"2016-05-29 22:10:00",237650,0.867,114.9,11.33,97.7,0,0.5,859.3629,0,-4.245,3.158,199,17.06,15.28,0.6593801,0,45.56,52.94,32.17,34.02
"2016-05-29 22:20:00",237651,1.025,155.7,11.23,89.6,0.2240262,0,859.0554,0,-23.63,3.349,198,17.01,15.32,1.064861,1.575,45.56,52.94,32.17,34.02
"2016-05-29 22:30:00",237652,0.539,159,11,92.9,0.3812375,0,858.9269,0,20.36,2.918,339,17.03,15.32,1.07244,1.813,45.56,52.88,32.17,34
"2016-05-29 22:40:00",237653,0.597,147.6,10.97,96.1,0.2554684,0,859.1396,0,-30.79,3.42,236,16.92,15.32,1.068651,1.543,45.56,52.94,32.17,34.02
"2016-05-29 22:50:00",237654,0.762,108.2,10.85,95.4,0,0.5,859.2786,0,-19.78,3.314,186,16.96,15.31,0.9284375,0,45.56,52.88,32.17,34
"2016-05-29 23:00:00",237655,0.435,143.8,10.4,99.5,0,0.5,859.0722,0,-21.99,3.338,195,16.91,15.3,0.5911684,0,45.56,52.88,32.17,34
"2016-05-29 23:10:00",237656,0.596,147.7,10.12,100,0,1.5,858.7162,0,-19.11,3.311,187,16.86,15.3,0.4585344,0,45.56,52.88,32.17,34
"2016-05-29 23:20:00",237657,0.256,111.4,9.98,100,0,0.5,858.4972,0,19.5,2.932,250,16.84,15.29,0.4888508,0,45.56,52.88,32.17,34
"2016-05-29 23:30:00",237658,0.267,346,9.97,100,0,1,858.533,0,19.22,2.935,322,16.75,15.29,0.6480115,0,45.61,52.88,32.19,34
"2016-05-29 23:40:00",237659,0.303,348.6,9.96,100,0,1,858.5604,0,-21.12,3.331,194,16.79,15.29,0.4736926,0,45.66,52.88,32.2,34
"2016-05-29 23:50:00",237660,0.296,85.6,9.86,100,0,1,858.3877,0,20.77,2.92,272,16.69,15.34,0.4509554,0,45.71,52.88,32.21,34
